Time,TemperatureF,DewpointF,PressureIn,WindDirection,WindDirectionDegrees,WindSpeedMPH,WindSpeedGustMPH,Humidity,HourlyPrecipIn,Conditions,Clouds,dailyrainin,SoftwareType,DateUTC
2013-05-16 00:02:00,51.0,49.0,29.88,South,191,0.0,0.0,93,-99.99,,,-99.99,,2013-05-16 04:02:00,
2013-05-16 00:12:00,51.0,49.0,29.88,South,191,0.0,0.0,93,-99.99,,,-99.99,,2013-05-16 04:12:00,
2013-05-16 00:23:00,51.0,49.0,29.87,South,191,0.0,0.0,93,-99.99,,,-99.99,,2013-05-16 04:23:00,
2013-05-16 00:33:00,51.0,49.0,29.86,South,191,0.0,0.0,93,-99.99,,,-99.99,,2013-05-16 04:33:00,
2013-05-16 00:42:00,51.0,49.0,29.86,South,191,0.0,0.0,93,-99.99,,,-99.99,,2013-05-16 04:42:00,
2013-05-16 00:53:00,51.0,49.0,29.88,South,191,0.0,0.0,94,-99.99,,,-99.99,,2013-05-16 04:53:00,
2013-05-16 01:02:00,50.0,48.0,29.88,South,191,0.0,0.0,94,-99.99,,,-99.99,,2013-05-16 05:02:00,
2013-05-16 01:12:00,50.0,48.0,29.88,South,191,0.0,0.0,94,-99.99,,,-99.99,,2013-05-16 05:12:00,
2013-05-16 01:22:00,50.0,48.0,29.88,SSW,192,0.0,0.0,94,-99.99,,,-99.99,,2013-05-16 05:22:00,
2013-05-16 01:32:00,50.0,48.0,29.88,East,84,0.0,0.0,94,-99.99,,,-99.99,,2013-05-16 05:32:00,
2013-05-16 01:42:00,50.0,48.0,29.88,East,84,0.0,0.0,94,-99.99,,,-99.99,,2013-05-16 05:42:00,
2013-05-16 01:52:00,50.0,48.0,29.88,East,84,0.0,0.0,94,-99.99,,,-99.99,,2013-05-16 05:52:00,
2013-05-16 02:02:00,51.0,49.0,29.88,East,85,0.0,0.0,94,-99.99,,,-99.99,,2013-05-16 06:02:00,
2013-05-16 02:12:00,51.0,49.0,29.88,East,85,0.0,0.0,94,-99.99,,,-99.99,,2013-05-16 06:12:00,
2013-05-16 02:22:00,51.0,49.0,29.88,East,84,0.0,0.0,94,-99.99,,,-99.99,,2013-05-16 06:22:00,
2013-05-16 02:33:00,51.0,49.0,29.87,East,85,0.0,0.0,94,-99.99,,,-99.99,,2013-05-16 06:33:00,
2013-05-16 02:43:00,51.0,49.0,29.87,East,85,0.0,0.0,94,-99.99,,,-99.99,,2013-05-16 06:43:00,
2013-05-16 02:53:00,51.0,49.0,29.87,East,85,0.0,0.0,94,-99.99,,,-99.99,,2013-05-16 06:53:00,
2013-05-16 03:02:00,51.0,49.0,29.87,East,85,0.0,0.0,94,-99.99,,,-99.99,,2013-05-16 07:02:00,
2013-05-16 03:12:00,51.0,49.0,29.87,East,85,0.0,0.0,94,-99.99,,,-99.99,,2013-05-16 07:12:00,
2013-05-16 03:24:00,50.0,48.0,29.88,East,84,0.0,0.0,94,-99.99,,,-99.99,,2013-05-16 07:24:00,
2013-05-16 03:34:00,50.0,48.0,29.87,East,85,0.0,0.0,94,-99.99,,,-99.99,,2013-05-16 07:34:00,
2013-05-16 03:44:00,50.0,48.0,29.87,East,85,0.0,0.0,94,-99.99,,,-99.99,,2013-05-16 07:44:00,
2013-05-16 03:54:00,50.0,48.0,29.88,East,85,0.0,0.0,94,-99.99,,,-99.99,,2013-05-16 07:54:00,
2013-05-16 04:03:00,51.0,50.0,29.88,East,85,0.0,0.0,95,-99.99,,,-99.99,,2013-05-16 08:03:00,
2013-05-16 04:13:00,51.0,50.0,29.88,East,85,0.0,0.0,95,-99.99,,,-99.99,,2013-05-16 08:13:00,
2013-05-16 04:24:00,51.0,50.0,29.88,East,85,0.0,0.0,95,-99.99,,,-99.99,,2013-05-16 08:24:00,
2013-05-16 04:35:00,52.0,51.0,29.88,East,84,0.0,0.0,95,-99.99,,,-99.99,,2013-05-16 08:35:00,
2013-05-16 04:45:00,52.0,51.0,29.88,East,84,0.0,0.0,95,-99.99,,,-99.99,,2013-05-16 08:45:00,
2013-05-16 04:54:00,52.0,51.0,29.87,East,85,0.0,0.0,95,-99.99,,,-99.99,,2013-05-16 08:54:00,
2013-05-16 05:04:00,52.0,51.0,29.87,East,84,0.0,0.0,95,-99.99,,,-99.99,,2013-05-16 09:04:00,
2013-05-16 05:14:00,52.0,51.0,29.87,East,85,0.0,0.0,95,-99.99,,,-99.99,,2013-05-16 09:14:00,
2013-05-16 05:24:00,52.0,51.0,29.87,East,85,0.0,0.0,95,-99.99,,,-99.99,,2013-05-16 09:24:00,
2013-05-16 05:35:00,52.0,51.0,29.87,East,84,0.0,0.0,95,-99.99,,,-99.99,,2013-05-16 09:35:00,
2013-05-16 05:45:00,52.0,51.0,29.87,East,84,0.0,0.0,95,-99.99,,,-99.99,,2013-05-16 09:45:00,
2013-05-16 05:55:00,52.0,51.0,29.88,East,85,0.0,0.0,95,-99.99,,,-99.99,,2013-05-16 09:55:00,
2013-05-16 06:05:00,52.0,51.0,29.88,East,85,0.0,0.0,95,-99.99,,,-99.99,,2013-05-16 10:05:00,
2013-05-16 06:15:00,52.0,51.0,29.88,East,85,0.0,0.0,95,-99.99,,,-99.99,,2013-05-16 10:15:00,
2013-05-16 06:24:00,52.0,51.0,29.88,East,85,0.0,0.0,95,-99.99,,,-99.99,,2013-05-16 10:24:00,
2013-05-16 06:36:00,52.0,50.0,29.88,East,85,0.0,0.0,94,-99.99,,,-99.99,,2013-05-16 10:36:00,
2013-05-16 06:45:00,52.0,50.0,29.88,East,85,0.0,0.0,94,-99.99,,,-99.99,,2013-05-16 10:45:00,
2013-05-16 06:56:00,53.0,51.0,29.89,East,84,0.0,0.0,93,-99.99,,,-99.99,,2013-05-16 10:56:00,
2013-05-16 07:05:00,53.0,51.0,29.89,East,84,0.0,0.0,93,-99.99,,,-99.99,,2013-05-16 11:05:00,
2013-05-16 07:15:00,53.0,51.0,29.89,East,84,0.0,0.0,93,-99.99,,,-99.99,,2013-05-16 11:15:00,
2013-05-16 07:25:00,54.0,50.0,29.90,East,82,0.0,0.0,86,-99.99,,,-99.99,,2013-05-16 11:25:00,
2013-05-16 07:35:00,55.0,51.0,29.91,East,82,0.0,1.0,87,-99.99,,,-99.99,,2013-05-16 11:35:00,
2013-05-16 07:46:00,55.0,51.0,29.91,East,82,0.0,1.0,87,-99.99,,,-99.99,,2013-05-16 11:46:00,
2013-05-16 07:57:00,54.0,51.0,29.93,WSW,243,1.0,3.0,89,-99.99,,,-99.99,,2013-05-16 11:57:00,
2013-05-16 08:06:00,54.0,51.0,29.93,West,269,0.0,2.0,90,-99.99,,,-99.99,,2013-05-16 12:06:00,
2013-05-16 08:13:00,54.0,51.0,29.93,West,269,0.0,2.0,90,-99.99,,,-99.99,,2013-05-16 12:13:00,
2013-05-16 08:23:00,55.0,52.0,29.94,West,269,0.0,5.0,90,-99.99,,,-99.99,,2013-05-16 12:23:00,
2013-05-16 08:35:00,56.0,53.0,29.94,West,269,0.0,1.0,89,-99.99,,,-99.99,,2013-05-16 12:35:00,
2013-05-16 08:45:00,56.0,53.0,29.94,West,269,0.0,1.0,89,-99.99,,,-99.99,,2013-05-16 12:45:00,
2013-05-16 08:53:00,57.0,54.0,29.94,West,269,0.0,1.0,89,-99.99,,,-99.99,,2013-05-16 12:53:00,
2013-05-16 09:04:00,61.0,56.0,29.95,West,266,1.0,2.0,84,-99.99,,,-99.99,,2013-05-16 13:04:00,
2013-05-16 09:12:00,61.0,56.0,29.95,West,266,1.0,2.0,84,-99.99,,,-99.99,,2013-05-16 13:12:00,
2013-05-16 09:26:00,63.0,56.0,29.95,West,262,0.0,1.0,78,-99.99,,,-99.99,,2013-05-16 13:26:00,
2013-05-16 09:35:00,65.0,56.0,29.96,West,262,0.0,1.0,74,-99.99,,,-99.99,,2013-05-16 13:35:00,
2013-05-16 09:43:00,65.0,56.0,29.96,West,262,0.0,1.0,74,-99.99,,,-99.99,,2013-05-16 13:43:00,
2013-05-16 09:55:00,66.0,55.0,29.95,WNW,286,0.0,2.0,68,-99.99,,,-99.99,,2013-05-16 13:55:00,
2013-05-16 10:05:00,68.0,54.0,29.96,NNE,26,1.0,1.0,60,-99.99,,,-99.99,,2013-05-16 14:05:00,
2013-05-16 10:16:00,68.0,54.0,29.96,NNE,26,1.0,1.0,60,-99.99,,,-99.99,,2013-05-16 14:16:00,
2013-05-16 10:23:00,68.0,52.0,29.96,WNW,284,0.0,2.0,56,-99.99,,,-99.99,,2013-05-16 14:23:00,
2013-05-16 10:37:00,68.0,52.0,29.96,WNW,284,0.0,2.0,56,-99.99,,,-99.99,,2013-05-16 14:37:00,
2013-05-16 10:47:00,68.0,52.0,29.96,WNW,284,0.0,2.0,56,-99.99,,,-99.99,,2013-05-16 14:47:00,
2013-05-16 10:56:00,71.0,49.0,29.95,West,275,1.0,2.0,45,-99.99,,,-99.99,,2013-05-16 14:56:00,
2013-05-16 11:08:00,71.0,45.0,29.95,WNW,288,1.0,4.0,40,-99.99,,,-99.99,,2013-05-16 15:08:00,
2013-05-16 11:17:00,71.0,45.0,29.95,WNW,288,1.0,4.0,40,-99.99,,,-99.99,,2013-05-16 15:17:00,
2013-05-16 11:28:00,73.0,45.0,29.95,West,281,1.0,4.0,37,-99.99,,,-99.99,,2013-05-16 15:28:00,
2013-05-16 11:40:00,73.0,45.0,29.95,West,281,1.0,4.0,37,-99.99,,,-99.99,,2013-05-16 15:40:00,
2013-05-16 11:50:00,74.0,46.0,29.94,NE,51,1.0,4.0,37,-99.99,,,-99.99,,2013-05-16 15:50:00,
2013-05-16 12:01:00,74.0,46.0,29.94,NE,51,1.0,4.0,37,-99.99,,,-99.99,,2013-05-16 16:01:00,
2013-05-16 12:09:00,76.0,43.0,29.92,NW,319,1.0,4.0,31,-99.99,,,-99.99,,2013-05-16 16:09:00,
2013-05-16 12:20:00,76.0,43.0,29.92,NW,319,1.0,4.0,31,-99.99,,,-99.99,,2013-05-16 16:20:00,
2013-05-16 12:30:00,76.0,43.0,29.92,NW,319,1.0,4.0,31,-99.99,,,-99.99,,2013-05-16 16:30:00,
2013-05-16 12:40:00,77.0,-99.9,29.92,West,274,1.0,4.0,34,-99.99,,,-99.99,,2013-05-16 16:40:00,
2013-05-16 12:51:00,77.0,46.0,29.92,West,274,1.0,4.0,34,-99.99,,,-99.99,,2013-05-16 16:51:00,
2013-05-16 13:01:00,78.0,42.0,29.92,WSW,240,2.0,5.0,28,-99.99,,,-99.99,,2013-05-16 17:01:00,
2013-05-16 13:10:00,76.0,52.0,29.91,ENE,63,2.0,8.0,44,-99.99,,,-99.99,,2013-05-16 17:10:00,
2013-05-16 13:20:00,76.0,52.0,29.91,ENE,63,2.0,8.0,44,-99.99,,,-99.99,,2013-05-16 17:20:00,
2013-05-16 13:31:00,75.0,51.0,29.91,West,262,2.0,8.0,43,-99.99,,,-99.99,,2013-05-16 17:31:00,
2013-05-16 13:40:00,75.0,49.0,29.91,West,267,2.0,9.0,40,-99.99,,,-99.99,,2013-05-16 17:40:00,
2013-05-16 13:50:00,-999.0,-99.9,29.91,West,278,2.0,9.0,40,-99.99,,,-99.99,,2013-05-16 17:50:00,
2013-05-16 14:00:00,-999.0,-99.9,29.91,West,278,2.0,9.0,40,-99.99,,,-99.99,,2013-05-16 18:00:00,
2013-05-16 14:10:00,74.0,48.0,29.91,SSW,198,2.0,7.0,40,-99.99,,,-99.99,,2013-05-16 18:10:00,
2013-05-16 14:20:00,74.0,48.0,29.91,SSW,198,2.0,7.0,40,-99.99,,,-99.99,,2013-05-16 18:20:00,
2013-05-16 14:30:00,-999.0,-99.9,29.91,SSW,198,2.0,7.0,40,-99.99,,,-99.99,,2013-05-16 18:30:00,
2013-05-16 14:40:00,-999.0,-99.9,29.90,WSW,250,2.0,6.0,36,-99.99,,,-99.99,,2013-05-16 18:40:00,
2013-05-16 14:50:00,-999.0,-99.9,29.90,WSW,250,2.0,6.0,36,-99.99,,,-99.99,,2013-05-16 18:50:00,
2013-05-16 15:01:00,-999.0,-99.9,29.90,NNE,23,2.0,8.0,37,-99.99,,,-99.99,,2013-05-16 19:01:00,
2013-05-16 15:11:00,77.0,-99.9,29.90,West,281,2.0,4.0,37,-99.99,,,-99.99,,2013-05-16 19:11:00,
2013-05-16 15:20:00,77.0,49.0,29.90,West,281,2.0,4.0,37,-99.99,,,-99.99,,2013-05-16 19:20:00,
2013-05-16 15:30:00,76.0,46.0,29.90,WSW,250,2.0,6.0,35,-99.99,,,-99.99,,2013-05-16 19:30:00,
2013-05-16 15:40:00,78.0,-99.9,29.89,NNW,327,2.0,6.0,33,-99.99,,,-99.99,,2013-05-16 19:40:00,
2013-05-16 15:51:00,-999.0,-99.9,29.89,NNW,327,2.0,6.0,33,-99.99,,,-99.99,,2013-05-16 19:51:00,
2013-05-16 16:00:00,77.0,-99.9,29.89,NW,311,2.0,9.0,32,-99.99,,,-99.99,,2013-05-16 20:00:00,
2013-05-16 16:10:00,-999.0,-99.9,29.88,NW,322,2.0,4.0,32,-99.99,,,-99.99,,2013-05-16 20:10:00,
2013-05-16 16:20:00,79.0,-99.9,29.88,North,354,2.0,7.0,31,-99.99,,,-99.99,,2013-05-16 20:20:00,
2013-05-16 16:30:00,79.0,-99.9,29.88,North,354,2.0,7.0,31,-99.99,,,-99.99,,2013-05-16 20:30:00,
2013-05-16 16:40:00,-999.0,-99.9,29.88,WSW,240,2.0,8.0,33,-99.99,,,-99.99,,2013-05-16 20:40:00,
2013-05-16 16:50:00,79.0,49.0,29.88,West,268,1.0,5.0,35,-99.99,,,-99.99,,2013-05-16 20:50:00,
2013-05-16 17:00:00,79.0,-99.9,29.88,West,268,1.0,5.0,35,-99.99,,,-99.99,,2013-05-16 21:00:00,
2013-05-16 17:10:00,78.0,-99.9,29.88,ESE,122,2.0,4.0,38,-99.99,,,-99.99,,2013-05-16 21:10:00,
2013-05-16 17:20:00,78.0,-99.9,29.88,ESE,122,2.0,4.0,38,-99.99,,,-99.99,,2013-05-16 21:20:00,
2013-05-16 17:29:00,75.0,50.0,29.88,WNW,294,2.0,7.0,42,-99.99,,,-99.99,,2013-05-16 21:29:00,
2013-05-16 17:38:00,74.0,51.0,29.88,West,262,2.0,8.0,45,-99.99,,,-99.99,,2013-05-16 21:38:00,
2013-05-16 17:50:00,74.0,-99.9,29.88,West,262,2.0,8.0,45,-99.99,,,-99.99,,2013-05-16 21:50:00,
2013-05-16 18:00:00,-999.0,-99.9,29.88,SE,126,1.0,7.0,45,-99.99,,,-99.99,,2013-05-16 22:00:00,
2013-05-16 18:08:00,72.0,49.0,29.88,WNW,300,2.0,6.0,44,-99.99,,,-99.99,,2013-05-16 22:08:00,
2013-05-16 18:21:00,72.0,49.0,29.88,WNW,300,2.0,6.0,44,-99.99,,,-99.99,,2013-05-16 22:21:00,
2013-05-16 18:31:00,72.0,50.0,29.88,West,274,2.0,6.0,46,-99.99,,,-99.99,,2013-05-16 22:31:00,
2013-05-16 18:40:00,72.0,49.0,29.88,WSW,248,2.0,5.0,45,-99.99,,,-99.99,,2013-05-16 22:40:00,
2013-05-16 18:51:00,72.0,49.0,29.88,WSW,248,2.0,5.0,45,-99.99,,,-99.99,,2013-05-16 22:51:00,
2013-05-16 19:00:00,72.0,51.0,29.88,West,277,1.0,7.0,47,-99.99,,,-99.99,,2013-05-16 23:00:00,
2013-05-16 19:06:00,71.0,50.0,29.88,NW,308,0.0,3.0,48,-99.99,,,-99.99,,2013-05-16 23:06:00,
2013-05-16 19:16:00,71.0,50.0,29.88,NW,308,0.0,3.0,48,-99.99,,,-99.99,,2013-05-16 23:16:00,
2013-05-16 19:24:00,70.0,51.0,29.89,West,263,1.0,9.0,51,-99.99,,,-99.99,,2013-05-16 23:24:00,
2013-05-16 19:35:00,69.0,52.0,29.90,NE,50,1.0,4.0,55,-99.99,,,-99.99,,2013-05-16 23:35:00,
2013-05-16 19:45:00,69.0,52.0,29.90,NE,50,1.0,4.0,55,-99.99,,,-99.99,,2013-05-16 23:45:00,
2013-05-16 19:54:00,69.0,52.0,29.90,NE,50,1.0,4.0,55,-99.99,,,-99.99,,2013-05-16 23:54:00,
2013-05-16 20:02:00,67.0,53.0,29.91,SW,218,1.0,4.0,61,-99.99,,,-99.99,,2013-05-17 00:02:00,
2013-05-16 20:13:00,67.0,53.0,29.91,SW,218,1.0,4.0,61,-99.99,,,-99.99,,2013-05-17 00:13:00,
2013-05-16 20:22:00,67.0,54.0,29.91,West,278,0.0,2.0,62,-99.99,,,-99.99,,2013-05-17 00:22:00,
2013-05-16 20:33:00,65.0,53.0,29.92,West,260,0.0,2.0,64,-99.99,,,-99.99,,2013-05-17 00:33:00,
2013-05-16 20:43:00,65.0,53.0,29.92,West,260,0.0,2.0,64,-99.99,,,-99.99,,2013-05-17 00:43:00,
2013-05-16 20:53:00,64.0,52.0,29.93,NE,55,0.0,3.0,64,-99.99,,,-99.99,,2013-05-17 00:53:00,
2013-05-16 21:03:00,63.0,50.0,29.93,SSE,158,0.0,4.0,63,-99.99,,,-99.99,,2013-05-17 01:03:00,
2013-05-16 21:12:00,63.0,50.0,29.93,SSE,158,0.0,4.0,63,-99.99,,,-99.99,,2013-05-17 01:12:00,
2013-05-16 21:23:00,63.0,50.0,29.93,SSE,158,0.0,4.0,63,-99.99,,,-99.99,,2013-05-17 01:23:00,
2013-05-16 21:32:00,62.0,50.0,29.94,West,259,0.0,1.0,64,-99.99,,,-99.99,,2013-05-17 01:32:00,
2013-05-16 21:43:00,62.0,50.0,29.94,West,259,0.0,1.0,64,-99.99,,,-99.99,,2013-05-17 01:43:00,
2013-05-16 21:53:00,61.0,50.0,29.95,ESE,105,0.0,1.0,66,-99.99,,,-99.99,,2013-05-17 01:53:00,
2013-05-16 22:02:00,60.0,48.0,29.95,SE,140,0.0,1.0,64,-99.99,,,-99.99,,2013-05-17 02:02:00,
2013-05-16 22:11:00,60.0,48.0,29.95,SE,140,0.0,1.0,64,-99.99,,,-99.99,,2013-05-17 02:11:00,
2013-05-16 22:22:00,59.0,47.0,29.95,SE,140,0.0,1.0,64,-99.99,,,-99.99,,2013-05-17 02:22:00,
2013-05-16 22:32:00,59.0,48.0,29.96,SE,140,0.0,0.0,66,-99.99,,,-99.99,,2013-05-17 02:32:00,
2013-05-16 22:42:00,59.0,48.0,29.96,SE,140,0.0,0.0,66,-99.99,,,-99.99,,2013-05-17 02:42:00,
2013-05-16 22:53:00,58.0,47.0,29.96,SE,140,0.0,0.0,67,-99.99,,,-99.99,,2013-05-17 02:53:00,
2013-05-16 23:02:00,58.0,48.0,29.96,NNE,26,0.0,2.0,70,-99.99,,,-99.99,,2013-05-17 03:02:00,
2013-05-16 23:11:00,58.0,48.0,29.96,NNE,26,0.0,2.0,70,-99.99,,,-99.99,,2013-05-17 03:11:00,
2013-05-16 23:23:00,59.0,47.0,29.96,NNE,25,0.0,1.0,64,-99.99,,,-99.99,,2013-05-17 03:23:00,
2013-05-16 23:34:00,59.0,46.0,29.97,NNE,25,0.0,1.0,63,-99.99,,,-99.99,,2013-05-17 03:34:00,
2013-05-16 23:43:00,59.0,46.0,29.97,NNE,25,0.0,1.0,63,-99.99,,,-99.99,,2013-05-17 03:43:00,
2013-05-16 23:53:00,59.0,47.0,29.97,NNE,25,0.0,0.0,64,-99.99,,,-99.99,,2013-05-17 03:53:00,